Change the Weather History Date:

Saturday, November 3, 2012

  Actual Average Record
Temperature  
Mean Temperature 65 °F -  
Max Temperature 82 °F 81 °F 89 °F (1972)
Min Temperature 48 °F 62 °F 37 °F (1954)
Growing Degree Days 15 (Base 50)    
Moisture  
Dew Point 54 °F    
Average Humidity 79    
Maximum Humidity 100    
Minimum Humidity 39    
Precipitation  
Precipitation 0.00 in - - ()
Sea Level Pressure  
Sea Level Pressure 30.09 in    
Wind  
Wind Speed 0 mph (ENE)    
Max Wind Speed 6 mph    
Max Gust Speed -    
Visibility 9 miles    
Events      
Averages and records for this station are not official NWS values.
T = Trace of Precipitation, MM = Missing Value Source: NWS Daily Summary

Daily Weather History Graph

Daily Weather History Graph

Search for Another Location

Airport or City:

Trip Planner

Search our weather history database for the weather conditions in past years. The results will help you decide how hot, cold, wet, or windy it might be!

Date:

Astronomy

Nov. 03, 2012 Rise Set
Actual Time 7:40 AM EDT 6:40 PM EDT
Civil Twilight 7:15 AM EDT 7:05 PM EDT
Nautical Twilight 6:47 AM EDT 7:33 PM EDT
Astronomical Twilight 6:20 AM EDT 8:00 PM EDT
Moon 10:28 PM EDT 11:34 AM EDT
Length of Visible Light 11h 49m
Length of Day
11h 00m
Waning Gibbous, 80% of the Moon is Illuminated
Nov 3
Waning Gibbous
Nov 6
Last Quarter
Nov 13
New
Nov 20
First Quarter
Nov 28
Full

Hourly Weather History & Observations

Time (EDT) Temp. Heat Index Dew Point Humidity Pressure Visibility Wind Dir Wind Speed Gust Speed Precip Events Conditions
12:15 AM 53.6 °F - 48.2 °F 82% 30.10 in 10.0 mi Calm Calm - N/A   Clear
12:35 AM 53.6 °F - 50.0 °F 88% 30.10 in 10.0 mi Calm Calm - N/A   Clear
12:55 AM 51.8 °F - 48.2 °F 88% 30.11 in 10.0 mi Calm Calm - N/A   Clear
1:15 AM 53.6 °F - 48.2 °F 82% 30.10 in 10.0 mi Calm Calm - N/A   Clear
1:35 AM 55.4 °F - 50.0 °F 82% 30.10 in 10.0 mi Calm Calm - N/A   Clear
1:55 AM 51.8 °F - 48.2 °F 88% 30.09 in 10.0 mi Calm Calm - N/A   Clear
2:15 AM 51.8 °F - 48.2 °F 88% 30.09 in 10.0 mi Calm Calm - N/A   Clear
2:35 AM 51.8 °F - 48.2 °F 88% 30.09 in 10.0 mi Calm Calm - N/A   Clear
2:55 AM 50.0 °F - 48.2 °F 94% 30.09 in 10.0 mi Calm Calm - N/A   Clear
3:15 AM 51.8 °F - 50.0 °F 94% 30.09 in 10.0 mi Calm Calm - N/A   Clear
3:35 AM 48.2 °F - 48.2 °F 100% 30.08 in 10.0 mi Calm Calm - N/A   Clear
3:55 AM 50.0 °F - 50.0 °F 100% 30.08 in 10.0 mi Calm Calm - N/A   Clear
4:15 AM 50.0 °F - 50.0 °F 100% 30.08 in 10.0 mi Calm Calm - N/A   Clear
4:35 AM 50.0 °F - 48.2 °F 94% 30.09 in 10.0 mi Calm Calm - N/A   Clear
4:55 AM 50.0 °F - 48.2 °F 94% 30.08 in 7.0 mi Calm Calm - N/A   Clear
5:15 AM 50.0 °F - 48.2 °F 94% 30.09 in 10.0 mi Calm Calm - N/A   Clear
5:35 AM 50.0 °F - 48.2 °F 94% 30.10 in 10.0 mi Calm Calm - N/A   Clear
5:55 AM 48.2 °F - 48.2 °F 100% 30.10 in 9.0 mi Calm Calm - N/A   Clear
6:15 AM 50.0 °F - 48.2 °F 94% 30.11 in 8.0 mi Calm Calm - N/A   Clear
6:35 AM 50.0 °F - 50.0 °F 100% 30.11 in 10.0 mi Calm Calm - N/A   Clear
6:55 AM 48.2 °F - 48.2 °F 100% 30.12 in 0.8 mi Calm Calm - N/A   Mist
7:15 AM 50.0 °F - 50.0 °F 100% 30.12 in 4.0 mi Calm Calm - N/A   Clear
3:35 PM 80.6 °F 80.5 °F 55.4 °F 42% 30.08 in 8.0 mi Calm Calm - N/A   Partly Cloudy
3:55 PM 80.6 °F 80.5 °F 55.4 °F 42% 30.08 in 8.0 mi Calm Calm - N/A   Partly Cloudy
4:15 PM 82.4 °F 81.7 °F 55.4 °F 39% 30.07 in 7.0 mi East 3.5 mph - N/A   Partly Cloudy
4:35 PM 80.6 °F 80.5 °F 55.4 °F 42% 30.07 in 9.0 mi WNW 3.5 mph - N/A   Partly Cloudy
4:55 PM 80.6 °F 80.5 °F 55.4 °F 42% 30.07 in 10.0 mi Calm Calm - N/A   Partly Cloudy
5:15 PM 80.6 °F 80.3 °F 53.6 °F 39% 30.07 in 9.0 mi NE 3.5 mph - N/A   Partly Cloudy
5:35 PM 80.6 °F 80.3 °F 53.6 °F 39% 30.07 in 9.0 mi Calm Calm - N/A   Partly Cloudy
5:55 PM 78.8 °F - 55.4 °F 44% 30.07 in 8.0 mi Calm Calm - N/A   Clear
6:15 PM 77.0 °F - 57.2 °F 50% 30.07 in 9.0 mi Calm Calm - N/A   Clear
6:35 PM 73.4 °F - 60.8 °F 65% 30.07 in 10.0 mi Calm Calm - N/A   Clear
6:55 PM 71.6 °F - 60.8 °F 69% 30.08 in 8.0 mi Calm Calm - N/A   Clear
7:15 PM 69.8 °F - 60.8 °F 73% 30.08 in 10.0 mi Calm Calm - N/A   Clear
7:35 PM 68.0 °F - 60.8 °F 78% 30.08 in 10.0 mi Calm Calm - N/A   Clear
7:55 PM 66.2 °F - 60.8 °F 83% 30.08 in 10.0 mi Calm Calm - N/A   Clear
8:15 PM 64.4 °F - 57.2 °F 77% 30.09 in 10.0 mi East 3.5 mph - N/A   Clear
8:35 PM 66.2 °F - 57.2 °F 73% 30.10 in 10.0 mi Calm Calm - N/A   Clear
8:55 PM 66.2 °F - 57.2 °F 73% 30.11 in 10.0 mi WSW 5.8 mph - N/A   Clear
9:15 PM 66.2 °F - 57.2 °F 73% 30.11 in 10.0 mi Calm Calm - N/A   Clear
9:35 PM 66.2 °F - 57.2 °F 73% 30.11 in 10.0 mi Calm Calm - N/A   Clear
9:55 PM 64.4 °F - 59.0 °F 83% 30.11 in 10.0 mi Calm Calm - N/A   Clear
10:15 PM 62.6 °F - 59.0 °F 88% 30.12 in 9.0 mi Calm Calm - N/A   Clear
10:35 PM 62.6 °F - 57.2 °F 82% 30.12 in 10.0 mi Calm Calm - N/A   Clear
10:55 PM 62.6 °F - 60.8 °F 94% 30.12 in 9.0 mi Calm Calm - N/A   Clear
11:15 PM 62.6 °F - 60.8 °F 94% 30.12 in 10.0 mi Calm Calm - N/A   Clear
11:35 PM 60.8 °F - 60.8 °F 100% 30.12 in 9.0 mi Calm Calm - N/A   Clear
11:55 PM 59.0 °F - 59.0 °F 100% 30.12 in 7.0 mi East 3.5 mph - N/A   Clear